Stations météo

réclame
Mon MeteoGroup
Maastricht, Pays-Bas (6380): Température de l'air & dewpoint: 17.01.2020 22:00:00 - 23.01.2020 22:00:00 (CET)Maastricht, Pays-Bas (6380): Température de l'air 5cm: 17.01.2020 22:00:00 - 23.01.2020 22:00:00 (CET)Maastricht, Pays-Bas (6380): Vitesse du vent & gusts: 17.01.2020 22:00:00 - 23.01.2020 22:00:00 (CET)Maastricht, Pays-Bas (6380): Direction du vent: 17.01.2020 22:00:00 - 23.01.2020 22:00:00 (CET)Maastricht, Pays-Bas (6380): reduced air pressure: 17.01.2020 22:00:00 - 23.01.2020 22:00:00 (CET)Maastricht, Pays-Bas (6380): visibility: 17.01.2020 22:00:00 - 23.01.2020 22:00:00 (CET)Maastricht, Pays-Bas (6380): Quantités de précipitations: 17.01.2020 22:00:00 - 23.01.2020 22:00:00 (CET)
Date & Time tt [°C] td [°C] tt 5cm [°C] ff [km/h] ff [knt] fx [km/h] fx [knt] dd ppp [hPa] vv [km] rr [mm]
23.01.2020 22:00:00 1,1 1,1 1,2 9 5 18 10 E 1027,2 2,0 0,0
23.01.2020 21:00:00 1,2 0,9 1,3 15 8 22 12 ENE 1027,0 2,4 0,0
23.01.2020 20:00:00 1,5 1,0 1,5 11 6 18 10 E 1027,8 4,5 0,0
23.01.2020 19:00:00 1,6 1,0 1,6 11 6 18 10 E 1027,8 5 0,0
23.01.2020 18:00:00 1,7 1,1 1,7 11 6 18 10 ENE 1028,3 5 0,0
23.01.2020 17:00:00 2,0 1,2 2,1 9 5 18 10 ENE 1028,7 6 0,0
23.01.2020 16:00:00 2,3 1,3 2,4 13 7 18 10 E 1029,1 9 0,0
23.01.2020 15:00:00 2,4 1,5 2,5 11 6 25 14 E 1030,0 6 0,0
23.01.2020 14:00:00 2,2 1,4 2,4 15 8 25 14 E 1030,8 7 0,0
23.01.2020 13:00:00 2,2 1,5 2,4 18 10 25 14 E 1031,4 7 0,0
23.01.2020 12:00:00 2,1 1,4 2,4 16 9 29 16 E 1032,1 7 0,0
23.01.2020 11:00:00 2,4 1,5 2,5 15 8 29 16 E 1032,5 10 0,0
23.01.2020 10:00:00 2,3 1,5 1,8 9 5 29 16 E 1032,8 7 0,0
23.01.2020 09:00:00 1,1 0,8 0,4 11 6 14 8 ENE 1033,2 7 0,0
23.01.2020 08:00:00 -0,9 -0,9 -2,1 11 6 14 8 ENE 1033,5 2,0 0,0
23.01.2020 07:00:00 -0,2 -0,3 -1,0 11 6 18 10 ENE 1033,6 3,1 0,0
23.01.2020 06:00:00 0,4 0,3 -0,2 11 6 18 10 E 1033,8 3,3 0,0
23.01.2020 05:00:00 0,8 0,8 0,3 8 4 14 8 ENE 1034,4 1,8 0,0
23.01.2020 04:00:00 1,4 1,4 1,4 8 4 14 8 E 1034,9 1,3 0,0
23.01.2020 03:00:00 1,8 1,8 1,9 8 4 14 8 E 1035,7 0,3 0,0
23.01.2020 02:00:00 1,7 1,7 1,8 11 6 14 8 NE 1036,0 0,2 0,0
23.01.2020 01:00:00 2,1 2,1 1,9 5 3 11 6 NE 1036,5 0,2 0,0
23.01.2020 00:00:00 2,5 2,5 2,6 5 3 11 6 ENE 1036,9 0,6 0,0
22.01.2020 23:00:00 2,4 2,4 2,5 4 2 7 4 - 1036,9 0,4 0,0
22.01.2020 22:00:00 2,3 2,3 2,5 0 0 7 4 N 1037,2 0,4 0,0
22.01.2020 21:00:00 2,4 2,4 2,5 4 2 7 4 ESE 1037,0 0,7 0,0
22.01.2020 20:00:00 2,2 2,2 2,4 4 2 14 8 NE 1037,0 0,6 0,0
22.01.2020 19:00:00 2,1 2,0 2,1 5 3 11 6 NNE 1036,8 1,1 0,0
22.01.2020 18:00:00 1,9 1,8 2,0 4 2 11 6 - 1036,6 1,6 0,0
22.01.2020 17:00:00 1,9 1,6 2,1 4 2 7 4 - 1036,5 2,2 0,0
22.01.2020 16:00:00 2,0 1,6 2,4 5 3 11 6 WNW 1036,5 2,4 0,0
22.01.2020 15:00:00 1,9 1,1 2,7 4 2 7 4 - 1036,5 5 0,0
22.01.2020 14:00:00 1,2 0,7 2,2 5 3 7 4 SSW 1036,8 4,3 0,0
22.01.2020 13:00:00 -0,2 -0,2 1,1 2 1 7 4 - 1037,4 2,4 0,0
22.01.2020 12:00:00 -1,2 -1,2 -0,6 8 4 14 8 SSW 1038,0 2,4 0,0
22.01.2020 11:00:00 -2,1 -2,2 -1,4 13 7 14 8 SSW 1038,0 2,0 0,0
22.01.2020 10:00:00 -2,5 -2,8 -1,9 5 3 11 6 SW 1038,2 3,0 0,0
22.01.2020 09:00:00 -3,1 -3,2 -2,7 4 2 7 4 - 1038,1 1,4 0,0
22.01.2020 08:00:00 -3,2 -3,5 -2,7 5 3 7 4 SSW 1036,9 1,8 0,0
22.01.2020 07:00:00 -3,8 -3,9 -3,4 5 3 11 6 SSW 1037,1 0,2 0,0
22.01.2020 06:00:00 -3,9 -3,9 -3,5 4 2 7 4 S 1037,8 0,2 0,0
22.01.2020 05:00:00 -3,8 -3,8 -3,6 5 3 14 8 SW 1038,0 0,2 0,0
22.01.2020 04:00:00 -3,6 -3,6 -3,2 8 4 11 6 S 1038,2 0,3 0,0
22.01.2020 03:00:00 -3,2 -3,2 -3,0 4 2 11 6 - 1038,8 0,2 0,0
22.01.2020 02:00:00 -3,4 -3,5 -3,4 9 5 18 10 N 1038,8 0,2 0,0
22.01.2020 01:00:00 -3,2 -3,2 -3,2 4 2 14 8 - 1039,0 0,1 0,0
22.01.2020 00:00:00 -4,6 -4,6 -5,0 2 1 7 4 S 1039,1 0,1 0,0
21.01.2020 23:00:00 -3,8 -3,8 -5,2 5 3 18 10 NNW 1039,3 0,2 0,0
21.01.2020 22:00:00 -2,0 -2,4 -6,9 5 3 7 4 S 1039,7 7 0,0
21.01.2020 21:00:00 -2,6 -2,7 -6,1 4 2 7 4 - 1040,2 6 0,0
21.01.2020 20:00:00 -3,4 -3,5 -4,3 4 2 14 8 - 1040,6 0,2 0,0
21.01.2020 19:00:00 -0,3 -0,4 -5,3 2 1 4 2 SSE 1040,4 8 0,0
21.01.2020 18:00:00 0,3 -0,4 -3,4 4 2 7 4 ESE 1040,7 10 0,0
21.01.2020 17:00:00 0,3 -0,7 -0,3 5 3 11 6 - 1041,0 10 0,0
21.01.2020 16:00:00 4,3 0,4 4,0 2 1 4 2 - 1041,1 10 0,0
21.01.2020 15:00:00 3,9 -0,5 4,1 4 2 7 4 - 1041,6 10 0,0
21.01.2020 14:00:00 4,4 1,2 5,5 4 2 7 4 - 1041,7 10 0,0
21.01.2020 13:00:00 2,9 0,7 3,9 4 2 4 2 - 1042,5 10 0,0
21.01.2020 12:00:00 0,5 -0,1 2,0 4 2 11 6 W 1043,3 10 0,0
21.01.2020 11:00:00 -0,7 -0,9 -0,3 4 2 11 6 SSW 1043,5 6 0,1
21.01.2020 10:00:00 -2,6 -2,7 -3,0 8 4 11 6 SW 1043,4 5 0,0
21.01.2020 09:00:00 -4,3 -4,6 -6,0 2 1 7 4 WNW 1043,2 3,9 0,0
21.01.2020 08:00:00 -4,8 -5,2 -6,8 5 3 7 4 SSE 1043,2 0,4 0,0
21.01.2020 07:00:00 -4,2 -4,5 -5,8 4 2 11 6 - 1043,2 0,3 0,0
21.01.2020 06:00:00 -3,7 -4,1 -6,7 5 3 7 4 SSE 1042,9 6 0,0
21.01.2020 05:00:00 -3,0 -3,4 -6,6 0 0 4 2 N 1043,7 7 0,0
21.01.2020 04:00:00 -2,6 -2,6 -6,3 4 2 7 4 SSE 1044,0 3,2 0,0
21.01.2020 03:00:00 -3,3 -3,3 -4,6 2 1 11 6 - 1044,7 2,6 0,0
21.01.2020 02:00:00 -1,3 -1,3 -4,8 5 3 11 6 ESE 1044,8 2,0 0,0
21.01.2020 01:00:00 -1,2 -1,2 -3,5 8 4 11 6 SE 1045,5 1,1 0,0
21.01.2020 00:00:00 -1,2 -1,2 -2,0 8 4 11 6 ESE 1045,9 0,3 0,0
20.01.2020 23:00:00 -0,8 -0,8 -1,3 4 2 11 6 - 1046,0 0,3 0,0
20.01.2020 22:00:00 0,4 0,4 0,4 5 3 18 10 ENE 1046,2 0,2 0,0
20.01.2020 21:00:00 0,8 0,8 -0,5 5 3 11 6 NE 1046,1 0,3 0,0
20.01.2020 20:00:00 1,8 1,6 1,3 5 3 14 8 NE 1046,3 2,0 0,0
20.01.2020 19:00:00 3,0 2,7 2,7 5 3 11 6 NE 1046,4 2,9 0,0
20.01.2020 18:00:00 3,4 2,9 3,2 8 4 14 8 NNE 1046,4 4,5 0,0
20.01.2020 17:00:00 3,8 3,1 3,6 4 2 7 4 - 1046,5 4,8 0,0
20.01.2020 16:00:00 4,1 3,2 4,4 4 2 7 4 - 1046,8 6 0,0
20.01.2020 15:00:00 4,1 2,8 4,9 2 1 7 4 - 1047,3 8 0,0
20.01.2020 14:00:00 3,3 3,0 4,2 5 3 7 4 SSE 1048,0 3,8 0,0
20.01.2020 13:00:00 3,1 3,1 3,9 8 4 11 6 SSE 1048,3 1,1 0,0
20.01.2020 12:00:00 2,9 2,9 3,8 4 2 18 10 - 1048,8 0,2 0,0
20.01.2020 11:00:00 2,7 2,6 3,5 4 2 18 10 - 1049,0 0,3 0,0
20.01.2020 10:00:00 2,4 2,4 2,8 8 4 7 4 ESE 1048,8 0,2 0,0
20.01.2020 09:00:00 2,4 2,4 2,5 0 0 4 2 N 1047,9 0,2 0,0
20.01.2020 08:00:00 2,2 2,2 2,2 4 2 7 4 - 1047,9 0,3 0,0
20.01.2020 07:00:00 1,9 1,9 2,0 4 2 7 4 S 1047,6 0,3 0,0
20.01.2020 06:00:00 1,8 1,8 2,0 2 1 7 4 SSE 1047,5 0,3 0,0
20.01.2020 05:00:00 1,9 1,9 1,9 4 2 7 4 SE 1047,3 0,2 0,0
20.01.2020 04:00:00 2,2 2,2 1,8 4 2 11 6 - 1047,0 0,4 0,0
20.01.2020 03:00:00 1,9 1,9 0,4 4 2 14 8 - 1046,9 2,5 0,0
20.01.2020 02:00:00 2,6 2,3 1,5 8 4 14 8 N 1047,1 6 0,0
20.01.2020 01:00:00 1,9 1,6 0,3 9 5 14 8 NNW 1047,0 7 0,0
20.01.2020 00:00:00 1,2 0,7 -0,7 5 3 14 8 N 1046,8 8 0,0
19.01.2020 23:00:00 2,0 0,9 0,4 9 5 14 8 N 1046,4 9 0,0
19.01.2020 22:00:00 2,3 0,9 0,5 8 4 14 8 N 1046,0 10 0,0
19.01.2020 21:00:00 2,6 1,0 1,1 8 4 14 8 N 1045,5 10 0,0
19.01.2020 20:00:00 3,0 1,3 1,5 9 5 14 8 N 1044,7 10 0,0
19.01.2020 19:00:00 3,6 1,7 2,4 13 7 22 12 N 1044,1 10 0,0
19.01.2020 18:00:00 4,7 2,7 3,6 9 5 18 10 N 1043,5 10 0,0
19.01.2020 17:00:00 5,3 3,0 4,9 9 5 29 16 N 1042,3 10 0,0
19.01.2020 16:00:00 5,8 2,6 5,6 15 8 29 16 N 1041,3 10 0,0
19.01.2020 15:00:00 5,7 2,9 5,9 13 7 29 16 NNE 1040,4 10 0,0
19.01.2020 14:00:00 5,3 2,8 5,3 15 8 25 14 N 1040,1 10 0,0
19.01.2020 13:00:00 5,3 3,2 4,8 15 8 29 16 N 1039,5 10 0,0
19.01.2020 12:00:00 4,0 2,5 4,4 9 5 11 6 NW 1039,3 10 0,0
19.01.2020 11:00:00 2,9 1,6 2,9 5 3 11 6 WNW 1039,0 10 0,0
19.01.2020 10:00:00 1,8 1,0 0,7 5 3 11 6 W 1037,9 10 0,0
19.01.2020 09:00:00 1,1 0,5 0,4 4 2 14 8 - 1036,7 10 0,0
19.01.2020 08:00:00 0,0 -0,3 -1,4 5 3 11 6 SW 1035,5 6 0,0
19.01.2020 07:00:00 0,5 0,0 -0,8 4 2 11 6 - 1035,0 10 0,0
19.01.2020 06:00:00 0,7 0,3 -0,8 9 5 11 6 W 1034,4 10 0,0
19.01.2020 05:00:00 0,2 -0,2 -1,7 8 4 11 6 W 1033,9 10 0,0
19.01.2020 04:00:00 1,7 0,7 0,6 8 4 14 8 W 1033,2 10 0,0
19.01.2020 03:00:00 1,6 0,5 0,5 8 4 14 8 W 1032,7 10 0,0
19.01.2020 02:00:00 2,1 0,8 0,9 9 5 14 8 W 1032,0 10 0,0
19.01.2020 01:00:00 1,7 0,4 0,0 9 5 14 8 W 1031,5 10 0,0
19.01.2020 00:00:00 2,3 0,6 0,3 11 6 14 8 W 1031,1 10 0,0
18.01.2020 23:00:00 1,9 0,2 0,2 9 5 14 8 W 1030,6 10 0,0
18.01.2020 22:00:00 1,5 -0,2 -0,2 8 4 11 6 WSW 1030,4 10 0,0
18.01.2020 21:00:00 3,1 0,4 1,7 5 3 11 6 W 1029,9 10 0,0
18.01.2020 20:00:00 3,9 1,1 3,0 8 4 14 8 W 1029,3 10 0,0
18.01.2020 19:00:00 4,3 0,9 3,0 9 5 18 10 WSW 1028,6 10 0,0
18.01.2020 18:00:00 4,8 1,3 3,5 9 5 18 10 WSW 1027,9 10 0,0
18.01.2020 17:00:00 5,4 0,6 4,3 15 8 25 14 WSW 1027,0 10 0,0
18.01.2020 16:00:00 6,3 0,9 5,7 9 5 29 16 W 1026,4 10 0,0
18.01.2020 15:00:00 6,6 1,6 6,4 18 10 32 18 W 1026,0 10 0,0
18.01.2020 14:00:00 6,4 2,7 6,8 15 8 29 16 WSW 1025,9 10 0,0
18.01.2020 13:00:00 5,8 2,7 6,3 15 8 25 14 WSW 1025,8 10 0,0
18.01.2020 12:00:00 4,9 2,3 5,0 16 9 29 16 WSW 1026,0 10 0,0
18.01.2020 11:00:00 4,7 2,0 4,2 22 12 29 16 SW 1025,7 10 0,0
18.01.2020 10:00:00 4,3 2,2 4,1 21 11 32 18 SW 1025,0 10 0,0
18.01.2020 09:00:00 4,2 2,4 3,9 22 12 29 16 SW 1024,4 10 0,0
18.01.2020 08:00:00 4,2 2,4 3,9 22 12 29 16 SW 1023,5 10 0,0
18.01.2020 07:00:00 4,0 2,2 3,7 22 12 29 16 SW 1023,2 10 0,0
18.01.2020 06:00:00 4,0 1,8 3,6 24 13 29 16 SW 1022,9 10 0,0
18.01.2020 05:00:00 3,8 1,5 3,1 24 13 29 16 SW 1022,7 10 0,0
18.01.2020 04:00:00 3,5 1,4 2,5 21 11 29 16 SW 1022,4 10 0,0
18.01.2020 03:00:00 3,7 1,4 2,8 24 13 29 16 SW 1022,4 10 0,0
18.01.2020 02:00:00 4,4 1,7 3,8 24 13 32 18 SW 1022,1 10 0,0
18.01.2020 01:00:00 4,5 2,3 3,4 21 11 29 16 SW 1021,6 10 0,0
18.01.2020 00:00:00 4,3 2,2 3,4 18 10 25 14 SW 1021,2 10 0,0
17.01.2020 23:00:00 5,3 2,5 4,3 21 11 29 16 SW 1020,6 10 0,0
17.01.2020 22:00:00 5,8 2,6 4,7 18 10 29 16 SW 1020,0 10 0,0

tt = Température de l'air
td = dewpoint
tt 5cm = Température de l'air 5cm
ff = Vitesse du vent
fx = gusts
dd = Direction du vent
ppp = reduced air pressure
vv = visibility
rr = Quantités de précipitations

stations d'obs. à proximité